www.pogodaiklimat.ru

Погода и климат >> Архив погоды >> Таиланд >> Chawang


ПОГОДА в Chawang

  • Прогноз погоды в Chawang
  • Монитор погоды в Chawang
  • Климат города

АРХИВ ПОГОДЫ в Chawang

Время (UTC), дата Ветер
(напр.,м/с)
 
Видим.   Явления Облачность Т
(С)
Тd
(С)
f
(%)
Тe
(С)
Тes
(С)
Комфортность P
(гПа)
Po
(гПа)
Тmin
(С)
Tmax
(С)
R
(мм)
R24
(мм)
S
(см)
00 11.11 штиль 0 6000 м дымка {дождь} 8/3 600 м
[Cu Sc Cs]
+24.0 +23.3 96 +32 +32 очень
душно
1010.1 1006.6 +23.5
03 11.11 В 3 7000 м осадки на расстоянии 8/4 300 м
[Cu Sc Cs]
+27.7 +25.6 88 +41 +46 опасность
перегрева
1011.2 1007.7
06 11.11 штиль 0 8000 м дымка 8/4 300 м
[Cu Sc Cs]
+31.0 +24.9 70 +44 +56 опасность
перегрева
1009.8 1006.4
09 11.11 штиль 0 10 км 8/4 300 м
[Cu Sc Cs]
+30.5 +24.8 72 +44 +47 опасность
перегрева
1008.2 1004.7
12 11.11 штиль 0 8000 м дымка {дождь} 8/4 300 м
[Cu Sc Cs]
+26.0 +24.8 93 +37 +37 очень
душно
1009.7 1006.3 +32.5 1
15 11.11 штиль 0 8000 м дымка {дождь} 8/4 600 м
[Cu Sc Cs]
+25.0 +24.3 96 +35 +35 очень
душно
1011.3 1007.8 0.0
18 11.11 штиль 0 7000 м дымка {дождь} 8/5 600 м
[Sc Cs]
+24.8 +24.1 96 +34 +34 очень
душно
1010.3 1006.8
21 11.11 штиль 0 7000 м дымка {дождь} 6/3 600 м
[Sc Cs]
+24.0 +23.3 96 +32 +32 очень
душно
1009.3 1005.8 0.0
00 12.11 штиль 0 500 м туман {дождь} 8/4 300 м
[Cu Sc Cs]
+23.7 +23.4 98 +32 +32 очень
душно
1010.7 1007.2 +23.5
03 12.11 Ю 2 10 км {туман} 5/3 600 м
[Cu med, cong Cs]
+28.2 +24.8 82 +40 +48 очень
душно
1011.0 1007.6
06 12.11 СВ 4 12 км {туман} 8/4 600 м
[Cu med, cong Cs]
+33.0 +23.7 58 +44 +50 опасность
перегрева
1008.5 1005.1
09 12.11 СЗ 3 12 км 6/4 600 м
[Cu med, cong Cs]
+29.5 +25.2 78 +43 +45 опасность
перегрева
1007.0 1003.5
12 12.11 штиль 0 10 км 3/3 600 м
[Cu hum Ci fib]
+27.0 +25.3 90 +39 +39 очень
душно
1008.2 1004.7 +33.7
15 12.11 штиль 0 8000 м дымка 3/3 600 м
[Cu hum Ci fib]
+25.0 +24.3 96 +35 +35 очень
душно
1009.8 1006.3
18 12.11 штиль 0 8000 м дымка 3/1 600 м
[Cu hum Ci fib]
+24.5 +23.8 96 +33 +33 очень
душно
1009.6 1006.1
21 12.11 штиль 0 7000 м дымка 3/1 600 м
[Cu hum Ci fib]
+23.6 +23.3 98 +32 +32 очень
душно
1008.4 1004.9
00 13.11 штиль 0 800 м туман ?/? +23.6 +23.3 98 +32 +32 очень
душно
1009.0 1005.5 +23.5
03 13.11 штиль 0 10 км 4/3 600 м
[Cu hum Cs]
+30.0 +25.0 75 +43 +54 опасность
перегрева
1009.9 1006.5
06 13.11 ЮЗ 6 10 км 8/4 600 м
[Cu med, cong Cs]
+31.7 +25.0 68 +45 +49 опасность
перегрева
1007.6 1004.2
09 13.11 штиль 0 8000 м дымка {гроза, дождь} 8/4 600 м
[Cu Sc Ac As Cs]
+27.0 +24.7 87 +38 +41 очень
душно
1006.8 1003.3 0.2
12 13.11 штиль 0 8000 м дымка {гроза, дождь} 3/3 600 м
[Cu hum Ci fib]
+26.0 +25.3 96 +38 +38 очень
душно
1007.8 1004.3 +32.7 0.2
15 13.11 штиль 0 7000 м дымка 3/1 600 м
[Cu hum Ci fib]
+24.8 +24.4 98 +35 +35 очень
душно
1009.4 1005.9
18 13.11 штиль 0 6000 м слабый дождь 8/4 300 м
[Cu Sc Cs]
+24.5 +23.8 96 +33 +33 очень
душно
1008.9 1005.4 0.0
21 13.11 штиль 0 6000 м дымка 8/4 600 м
[Cu med, cong Cs]
+24.0 +23.6 98 +33 +33 очень
душно
1008.2 1004.7
00 14.11 штиль 0 8000 м дымка 8/4 600 м
[Cu med, cong Cs]
+24.0 +23.4 96 +32 +32 очень
душно
1009.2 1005.7 +23.8
03 14.11 штиль 0 12 км 8/4 600 м
[Sc Cs]
+30.0 +25.0 75 +43 +51 опасность
перегрева
1010.1 1006.7
06 14.11 штиль 0 12 км 8/3 600 м
[Cu med, cong Cs]
+33.0 +24.8 62 +46 +60 опасность
перегрева
1008.1 1004.7
09 14.11 штиль 0 12 км {дождь} 8/5 600 м
[Cu Sc Cs]
+30.5 +25.1 73 +44 +47 опасность
перегрева
1007.6 1004.1 7
12 14.11 штиль 0 10 км 6/4 600 м
[Cu Sc Cs]
+27.0 +24.8 88 +39 +39 очень
душно
1008.6 1005.1 +33.5 7
15 14.11 штиль 0 10 км 6/3 600 м
[Cu hum Cs]
+25.5 +24.0 91 +35 +35 очень
душно
1010.7 1007.2
18 14.11 штиль 0 10 км 6/3 600 м
[Cu hum Cs]
+25.0 +24.3 96 +35 +35 очень
душно
1010.1 1006.6
21 14.11 штиль 0 10 км 6/3 600 м
[Cu hum Cs]
+24.7 +24.1 96 +34 +34 очень
душно
1009.4 1005.9
00 15.11 штиль 0 8000 м в посл. час дождь 10/5 600 м
[Sc Cs]
+25.2 +24.2 94 +35 +35 очень
душно
1010.6 1007.1 +24.5 0.3
03 15.11 штиль 0 10 км слабый дождь 10/8 300 м
[Cu Sc Ac As]
+26.0 +25.1 95 +37 +38 очень
душно
1012.4 1008.9 4
06 15.11 штиль 0 12 км {дождь} 9/8 600 м
[Cu Sc Cs]
+29.6 +25.3 78 +43 +47 опасность
перегрева
1010.5 1007.1 4
09 15.11 штиль 0 10 км 10/6 600 м
[Cu Sc Cs]
+28.0 +25.1 84 +40 +43 очень
душно
1010.0 1006.5
12 15.11 штиль 0 10 км 6/3 600 м
[Cu hum Cs]
+27.0 +24.8 88 +39 +39 очень
душно
1009.3 1005.8 +30.0
15 15.11 штиль 0 10 км 6/3 600 м
[Cu hum Cs]
+26.7 +24.8 89 +38 +38 очень
душно
1011.2 1007.7
18 15.11 штиль 0 10 км 6/3 600 м
[Cu hum Cs]
+25.0 +24.1 95 +34 +34 очень
душно
1011.1 1007.6
21 15.11 штиль 0 10 км 6/3 600 м
[Cu hum Cs]
+24.3 +23.4 95 +33 +33 очень
душно
1008.9 1005.4
00 16.11 штиль 0 8000 м дымка {дождь} 10/8 600 м
[Cu Sc Cs]
+24.6 +24.3 98 +34 +34 очень
душно
1010.6 1007.1 +24.0
03 16.11 ЮЗ 3 8000 м в посл. час дождь 8/4 300 м
[Cu Sc Cs]
+27.0 +25.1 89 +39 +44 очень
душно
1011.9 1008.4 0.8
06 16.11 С 3 8000 м в посл. час дождь 8/4 300 м
[Cu Sc Cs]
+29.7 +24.7 75 +42 +50 опасность
перегрева
1009.6 1006.2 0.0
09 16.11 штиль 0 12 км 5/3 300 м
[Cu Sc Cs]
+29.0 +25.2 80 +42 +47 опасность
перегрева
1007.8 1004.3
12 16.11 штиль 0 8000 м дымка {дождь} 8/3 300 м
[Cu Sc Cs]
+26.0 +25.0 94 +37 +37 очень
душно
1009.1 1005.7 +31.2 1
15 16.11 штиль 0 7000 м дымка 8/3 600 м
[Cu Sc Cs]
+25.2 +24.5 96 +35 +35 очень
душно
1011.2 1007.7
18 16.11 штиль 0 7000 м дымка 8/3 600 м
[Sc Cs]
+24.5 +23.8 96 +33 +33 очень
душно
1010.8 1007.3
21 16.11 штиль 0 6000 м дымка 8/4 600 м
[Sc Cs]
+24.5 +24.1 98 +34 +34 очень
душно
1009.6 1006.1
00 17.11 штиль 0 500 м туман ?/? +24.5 +24.2 98 +34 +34 очень
душно
1010.6 1007.1 +24.0
03 17.11 штиль 0 6000 м дымка {туман} 8/4 300 м
[Cu Sc Cs]
+26.0 +25.3 96 +38 +45 очень
душно
1012.5 1009.0
06 17.11 СВ 2 8000 м дымка {дождь, туман} 8/4 300 м
[Cu Sc Cs]
+28.5 +26.0 86 +43 +51 опасность
перегрева
1009.9 1006.4 0.3
09 17.11 штиль 0 10 км 8/4 600 м
[Cu Sc Cs]
+29.7 +26.2 82 +45 +49 опасность
перегрева
1008.1 1004.6
12 17.11 штиль 0 8000 м дымка 8/3 600 м
[Cu Sc Cs]
+27.0 +25.9 94 +40 +40 очень
душно
1009.2 1005.7 +30.0
15 17.11 штиль 0 7000 м дымка 8/3 600 м
[Cu Sc Cs]
+26.0 +25.1 95 +37 +37 очень
душно
1011.2 1007.7
18 17.11 штиль 0 8000 м слабый дождь 10/4 300 м
[Cu Sc Ac As Cs]
+25.0 +24.4 96 +35 +35 очень
душно
1010.8 1007.3 0.1

 

Местоположение метеостанции Chawang (Таиланд): широта 8.43 долгота 99.50 высота над уровнем моря 30 м.

В архиве по умолчанию представлена погода в Chawang за последнюю неделю. Архивные данные за месяц целиком и за предыдущие месяцы, начиная с января 2011 года, Вы можете получить, выбрав интересующий диапазон дат из раскрывающегося списка и нажав кнопку "Ввод!".


*Определитесь, кто Вы:
робот инопланетянин человек

Внимание! Время в таблицах - всемирное. Для получения местного времени необходимо прибавить поправку, которая в Chawang равна 7 ч.

Смотрите также архив погоды в соседних городах и на ближайших метеорологических станциях:

Погода в Prasang (Таиланд) (32 км)
Погода в Nakhonsi Thammarat 2 (Таиланд) (51 км)
Погода в Nakhonsi Thammarat (Таиланд) (69 км)
Погода в Krabi (Таиланд) (75 км)
Погода в Surat Thani Agromet (Таиланд) (76 км)
Погода в Surat Thani (Таиланд) (86 км)
Погода в Trang (Таиланд) (102 км)
Погода в Ko Lanta (Таиланд) (112 км)
Погода в Phatthalung Agromet (Таиланд) (120 км)
Погода в Ko Samui (Таиланд) (131 км)

Пояснения к столбцам:

Ветер - указаны скорость ветра в м/с - средняя за 10 мин, порывы в срок и между сроками (в фигурных скобках) и направление, откуда дует ветер: С - северный, СВ - северо-восточный, В - восточный, ЮВ - юго-восточный, Ю - южный, ЮЗ - юго-западный, З - западный, СЗ - северо-западный.
Видимость - горизонтальная дальность видимости в метрах или километрах. При видимости от 1 до 10 км при отсутствии осадков обычно наблюдается дымка, при ухудшении видимости до 1 км и менее - туман. В сухую погоду видимость может ухудшаться дымом, пылью или мглою.
Явления - указаны атмосферные явления, наблюдавшиеся в срок или в последний час перед сроком; фигурными скобками обозначены явления, наблюдавшиеся между сроками (за 1-3 часа до срока); квадратными скобками обозначены град или гололедные отложения с указанием их диаметра в мм.
Облачность - указаны через наклонную черту общая и нижняя облачность в баллах и высота нижней границы облаков в метрах; квадратными скобками обозначены формы облаков: Ci - перистые, Cs - перисто-слоистые, Cc - перисто-кучевые, Ac - высококучевые, As - высокослоистые, Sc - слоисто-кучевые, Ns - слоисто-дождевые, Cu - кучевые, Cb - кучево-дождевые. Подробнее классификацию облаков см. в Атласе облаков (PDF).
T - Температура воздуха - температура, измеренная на высоте 2 м над землей.
Td - Температура точки росы - температура, при понижении до которой содержащийся в воздухе водяной пар достигнет насыщения.
f - Относительная влажность воздуха - влажноcть воздуха, измеренная на высоте 2 м над землей.
Te - Эффективная температура - температура, которую ощущает одетый по сезону человек в тени. Характеристика душности погоды. При расчете учитывается влияние влажности воздуха и скорости ветра на теплоощущения человека.
Tes - Эффективная температура на солнце - температура, которую ощущает человек, с поправкой на солнечный нагрев. Характеристика знойности погоды. Зависит от высоты солнца над горизонтом, облачности и скорости ветра. Ночью, в пасмурную погоду, а также при ветре 12 м/с и более поправка равна нулю.
P - Атмосферное давление - приведенное к уровню моря атмосферное давление.
Po - Атмосферное давление - измеренное на уровне метеостанции атмосферное давление.
Tmin - Минимальная температура - минимум температуры воздуха на высоте 2 м над землей.
Tmax - Максимальная температура - максимум температуры воздуха на высоте 2 м над землей.
R - Количество осадков - Количество выпавших осадков за период времени, мм. При наведении курсора мыши на число - период времени, за который выпало указанное количество осадков.
R24 - Количество осадков - Количество выпавших осадков за 24 часа, мм.
S - Снежный покров - Высота снежного покрова, см. При наведении курсора мыши на число - состояние снежного покрова и степень покрытия местности в баллах.